ATLAS 5 CENTAUR DEB, 43958

Orbit data source: Space-Track

ATLAS 5 CENTAUR DEB, 43958 is space debris in HEO originally from a launch on Wed, 17 Sep 2014 UTC launched from the Air Force Eastern Test Range (AFETR). Debris objects in space refer to the collection of defunct objects orbiting the Earth. Examples of debris include non-operational satellites, rocket bodies, and fragments generated from explosions, collisions, or faulty payload assembly.

Loading next visibility...
Identifier
43958, 2014-055M
Orbit
HEO
Country
Flag of USUS
Related business
Flag of USUnited Launch Alliance/Lockheed Martin (US)
Manufacturer
Unknown
Mission
Spacecraft
Bus & Motor
Unknown
Mass
Unknown
Launch date (UTC)
2014-09-17 (11 years ago)
Launch vehicle
Unknown
Launch site
Air Force Eastern Test Range (AFETR)
Object type
Payload
Rocket body
Debris
Shape & HBR
Unknown shape, 1.1 m
Radar Cross Section
Small (<0.1 m²)

Expand to show TLE details & history
Last TLE update: 1 day ago

TLE from 1 day ago
0 ATLAS 5 CENTAUR DEB
1 43958U 14055M   26071.70914406 -.00000094  00000-0  00000-0 0  9995
2 43958  20.2478 144.5308 4706835 164.3212 217.5788  1.89319253 52074
Epoch: 2026-03-12T17:01Z
TLE epoch observation values (Epoch: 2026-03-12T17:01:10.046Z)
Latitude
-0.00002°
Longitude
78.89191°
Altitude
32,927.494 km
Speed
2.417 km/s
True Right ascension
09h 38m 09s
True Declination
0° 00' 00"
Sunlit
Object was in daylight at epoch
Visualization orbit readout
Latitude
Unknown
Longitude
Unknown
Altitude
Unknown
Speed
Unknown
Apparent Right ascension
Unknown
Apparent Declination
Unknown
Sunlit
N/A
Visualization observer readout
Local Sidereal Time
21:44:07
Azimuth
Unknown
Elevation
Unknown
Doppler factor
Unknown
Orbital elements
Apogee altitude
34,218.319 km
Perigee altitude
8,233.011 km
Semi-major axis
27,603.802 km
Eccentricity
0.47068
Inclination
20.2478°
RAAN
144.5308°
Arg. of periapsis
164.3212°
True anomaly
195.6651°
Mean anomaly
217.5788°
Eccentric anomaly
205.82909°
Mean motion
0.47325 °/min
Orbital period
760.7 mins
BSTAR
0
Loading maneuver chart data...
Computing Atmospheric mass density...

Documentation

Showing up to 5 results
|